{"data":{"norad_id":67930,"intl_designator":"2026-036AC","name":"STARLINK-36865","alt_names":[],"object_type":"PAYLOAD","status":"ACTIVE","operator":null,"country":"US","launch_date":"2026-02-22","launch_site_code":"AFETR","launch_vehicle":null,"mission":null,"orbit_class":"UNKNOWN","rcs_meters":null,"size_class":null,"mass_kg":null,"dimensions":null,"purposes":["comms"],"wikipedia_slug":null,"has_3d_model":false,"image_url":null,"decayed_at":null,"tle_current":{"epoch":"2026-09-19T14:43:59.239776Z","epoch_age_seconds":139781,"freshness":"FRESH","line1":"1 67930U 26036AC  26262.61388009  .00013635  00000+0  50391-3 0  9993","line2":"2 67930  43.0008 229.7768 0000470  26.4261 333.6614 15.27591058 33381","mean_motion":15.27591058,"eccentricity":4.7e-5,"inclination_deg":43.0008,"raan_deg":229.7768,"arg_perigee_deg":26.4261,"mean_anomaly_deg":333.6614,"bstar":0.00050391,"rev_number":3338,"period_min":94.266066330954,"perigee_km":482.69351041902,"apogee_km":483.33845879958,"semimajor_km":6861.1529846093,"source":"CELESTRAK","updated_at":"2026-09-20T09:00:43.706147Z"}}}